SCOUT X-4 DEB, 976

Orbit data source: Space-Track

SCOUT X-4 DEB, 976 is space debris in LEO originally from a launch on Sat, 10 Oct 1964 UTC launched from the Air Force Western Test Range (AFWTR). Debris objects in space refer to the collection of defunct objects orbiting the Earth. Examples of debris include non-operational satellites, rocket bodies, and fragments generated from explosions, collisions, or faulty payload assembly.

Loading next visibility...
Identifier
976, 1964-064C
Orbit
LEO
Country
Flag of USUS
Related business
Manufacturer
APL
Mission
Spacecraft
Bus & Motor
Unknown
Mass
Unknown
Launch date (UTC)
1964-10-10 (61 years ago)
Launch vehicle
Unknown
Launch site
Air Force Western Test Range (AFWTR)
Object type
Payload
Rocket body
Debris
Shape & HBR
Unknown
Radar Cross Section
Small (<0.1 m²)

Expand to show TLE details & history
Last TLE update: 2 days ago

TLE from 2 days ago
0 SCOUT X-4 DEB
1 00976U 64064C   25240.97566291  .00000514  00000-0  28207-3 0  9992
2 00976  79.3136 303.7291 0116660  90.5338 270.9194 14.07671789101853
Epoch: 2025-08-28T23:24Z
TLE epoch observation values (Epoch: 2025-08-28T23:24:57.275Z)
Latitude
0.00003°
Longitude
-24.94049°
Altitude
869.808 km
Speed
7.418 km/s
True Right ascension
20h 14m 54s
True Declination
0° 00' 00"
Sunlit
Object was in full shadow at epoch
Visualization orbit readout
Latitude
Unknown
Longitude
Unknown
Altitude
Unknown
Speed
Unknown
Apparent Right ascension
Unknown
Apparent Declination
Unknown
Sunlit
N/A
Visualization observer readout
Local Sidereal Time
18:58:15
Azimuth
Unknown
Elevation
Unknown
Doppler factor
Unknown
Orbital elements
Apogee altitude
949.123 km
Perigee altitude
780.135 km
Semi-major axis
7,242.766 km
Eccentricity
0.01167
Inclination
79.3136°
RAAN
303.7291°
Arg. of periapsis
90.5338°
True anomaly
269.58256°
Mean anomaly
270.9194°
Eccentric anomaly
270.25099°
Mean motion
3.52117 °/min
Orbital period
102.24 mins
BSTAR
0.00028207
Loading maneuver chart data...
Computing Atmospheric mass density...
Loading historical data...
Loading historical data...
Loading historical data...
Loading historical data...
Loading historical data...
Loading historical data...
Loading historical data...
Other satellites on launch #64 in the year 1964 (1964-10-10 UTC)

Documentation

Showing up to 5 results
|